Find Starlink 30954

NORAD ID: 58407 Int'l Des: 2023-180 Owner: SPXS Country: US Constellation: starlink operational
LEOCIRCULAR

現在のビュー

3D地球を読み込み中...

About Starlink 30954

Starlink 30954 (NORAD 58407) is a starlink constellation satellite (v2 mini) launched Nov 22, 2023 by SPXS of US. It operates in LEO, CIRCULAR orbit with a mass of 730.00 kg.

Starlink 30954について

説明を読み込み中...

次回通過

Passes for default location (London). Set your location on the main map for personalized predictions.

高度履歴

Loading altitude history...

軌道要素

1 58407U 23180F 26174.98422628 -.00001600 00000-0 -48674-4 0 9991
2 58407 42.9978 172.1477 0000138 181.8087 178.2764 15.27560152143882
Epoch: Jun 23, 2026 • Age: 12 hours

現在のステータス

高度 496.1 km
速度 7.62 km/s
衛星直下点 -42.25°S, 3.53°E
打ち上げ日 Nov 22, 2023
運用期間 2.5 years
タイプ internet

技術仕様

分類 Payload
質量 730.00 kg
乾燥質量 700.00 kg
総質量 730.00 kg
長さ 0.30 m
直径 4.10 m
スパン 29.00 m
形状 Box + pan
製造者 SPXS
バスタイプ Starlink V2M
フェーズステータス In Orbit
所有者/国 SPXS/US

Most Searched